EW3708 Weather Reports


time (UTC)temp
C
wind
direction
speed
KPH
gust
KPH
rain 1hr
cm
rain 24hr
cm
rain mn
cm
humidity
%
barometer
mb
20260508203045 12 327 3.2 9.7 0.00 0.08 0.08 58 1011.0
20260508201543 11 333 3.2 6.4 0.00 0.08 0.08 63 1011.0
20260508200043 11 309 1.6 6.4 0.00 0.08 0.08 62 1011.2
20260508194543 11 320 1.6 9.7 0.00 0.08 0.08 61 1011.2
20260508193041 11 294 4.8 11.3 0.00 0.08 0.08 59 1011.2
20260508191547 12 271 1.6 9.7 0.00 0.08 0.08 53 1011.2
20260508190040 12 267 4.8 12.9 0.00 0.08 0.08 51 1011.2
20260508184544 13 297 6.4 14.5 0.00 0.08 0.08 50 1011.2
20260508183040 12 196 1.6 11.3 0.00 0.08 0.08 56 1011.2
20260508181536 12 205 4.8 12.9 0.00 0.08 0.08 55 1011.5
20260508180038 11 327 4.8 12.9 0.03 0.08 0.08 55 1011.6
20260508174536 12 215 4.8 12.9 0.03 0.08 0.08 53 1011.4
20260508173033 12 257 6.4 16.1 0.03 0.08 0.08 52 1011.5
20260508171531 11 237 6.4 14.5 0.03 0.08 0.08 55 1011.4
20260508170028 10 254 4.8 14.5 0.00 0.05 0.05 59 1011.5
20260508164527 11 238 6.4 12.9 0.00 0.05 0.05 58 1011.6
20260508163031 11 262 4.8 16.1 0.00 0.05 0.05 57 1011.7
20260508161524 10 281 6.4 9.7 0.00 0.05 0.05 60 1012.0
20260508160025 10 226 3.2 12.9 0.00 0.05 0.05 58 1011.9
20260508154520 10 171 6.4 12.9 0.00 0.05 0.05 59 1011.9
20260508153018 10 216 3.2 11.3 0.00 0.05 0.05 61 1011.9
20260508151514 9 254 1.6 19.3 0.00 0.05 0.05 64 1012.1
20260508150033 8 271 4.8 11.3 0.00 0.05 0.05 63 1012.3
20260508144508 8 231 8.0 20.9 0.00 0.05 0.05 66 1012.3
20260508143135 7 138 4.8 12.9 0.00 0.05 0.05 68 1012.4
20260508141526 7 201 3.2 8.0 0.00 0.05 0.05 72 1012.6
20260508140026 7 225 1.6 11.3 0.00 0.05 0.05 70 1012.7
20260508134518 7 205 1.6 6.4 0.00 0.05 0.05 72 1012.4
20260508133017 7 217 0.0 6.4 0.00 0.05 0.05 70 1012.5
20260508131514 6 220 1.6 8.0 0.00 0.05 0.05 77 1012.5
20260508130013 6 222 1.6 8.0 0.00 0.05 0.05 83 1012.4
20260508124513 5 209 1.6 4.8 0.00 0.05 0.05 88 1012.3
20260508123013 4 186 1.6 4.8 0.00 0.05 0.05 92 1012.3
20260508121512 4 194 3.2 6.4 0.00 0.05 0.05 93 1012.5
20260508120011 3 203 0.0 3.2 0.00 0.05 0.05 94 1012.3
20260508114510 3 204 0.0 1.6 0.00 0.05 0.05 94 1012.2
20260508113011 2 203 1.6 3.2 0.00 0.05 0.05 94 1012.4
20260508111507 2 203 0.0 1.6 0.00 0.05 0.05 94 1012.2
20260508110006 1 203 0.0 3.2 0.00 0.05 0.05 94 1012.1
20260508104504 1 203 0.0 3.2 0.00 0.05 0.05 92 1012.0
20260508103002 1 286 0.0 0.0 0.00 0.05 0.05 92 1011.8
20260508101559 1 286 0.0 0.0 0.00 0.05 0.05 92 1011.5
20260508100058 1 286 0.0 0.0 0.00 0.05 0.05 92 1011.6
20260508094559 1 286 0.0 0.0 0.00 0.05 0.05 91 1011.4
20260508093055 1 286 0.0 0.0 0.00 0.05 0.05 92 1011.5
20260508091607 1 286 0.0 0.0 0.00 0.05 0.05 91 1011.4
20260508090054 2 286 0.0 0.0 0.00 0.05 0.05 91 1011.3
20260508084559 2 286 0.0 0.0 0.00 0.05 0.05 91 1011.1
20260508083055 2 286 0.0 0.0 0.00 0.05 0.05 91 1011.2
20260508081549 2 286 0.0 0.0 0.00 0.05 0.05 91 1011.3
20260508074544 3 286 0.0 0.0 0.00 0.05 0.05 90 1010.9
20260508073054 3 286 0.0 0.0 0.00 0.05 0.05 89 1010.8
20260508071544 3 286 0.0 0.0 0.00 0.05 0.05 89 1010.8
20260508070039 3 286 0.0 0.0 0.00 0.05 0.05 90 1010.8
20260508064545 4 286 0.0 0.0 0.03 0.08 0.05 89 1010.8
20260508063036 4 286 0.0 0.0 0.03 0.08 0.05 89 1010.7
20260508061536 4 286 0.0 0.0 0.03 0.08 0.05 88 1010.7
20260508060033 5 286 0.0 3.2 0.03 0.08 0.05 87 1011.0
20260508054542 5 286 1.6 6.4 0.00 0.05 0.03 86 1011.3
20260508053028 5 282 3.2 6.4 0.00 0.05 0.03 86 1011.3
20260508051530 5 296 3.2 6.4 0.00 0.05 0.03 86 1011.1
20260508050023 6 309 0.0 1.6 0.03 0.05 0.03 87 1011.0
20260508044521 6 309 0.0 3.2 0.03 0.08 0.03 86 1010.9
20260508043019 6 310 0.0 1.6 0.03 0.08 0.03 84 1010.4
20260508041516 6 310 0.0 4.8 0.03 0.08 0.03 81 1010.2
20260508040032 7 312 3.2 8.0 0.00 0.05 0.00 76 1010.7
20260508034511 7 9 0.0 0.0 0.00 0.05 0.05 79 1009.9
20260508033010 7 12 0.0 0.0 0.00 0.05 0.05 78 1008.8
20260508031514 7 12 0.0 0.0 0.00 0.05 0.05 77 1009.0
20260508030009 7 12 0.0 0.0 0.00 0.05 0.05 74 1008.9
20260508024519 7 12 0.0 0.0 0.00 0.05 0.05 74 1008.8
20260508023010 7 12 0.0 0.0 0.00 0.05 0.05 73 1009.0
20260508021506 8 12 0.0 0.0 0.00 0.05 0.05 71 1009.1
20260508020007 8 12 0.0 0.0 0.00 0.05 0.05 70 1008.9
20260508014506 8 12 0.0 0.0 0.00 0.05 0.05 68 1008.8
20260508013006 8 12 0.0 0.0 0.00 0.05 0.05 67 1008.8
20260508011505 8 12 0.0 0.0 0.00 0.05 0.05 66 1008.8
20260508010004 9 12 0.0 0.0 0.00 0.05 0.05 63 1008.5
20260508004504 9 12 0.0 0.0 0.00 0.05 0.05 62 1008.5
20260508003004 10 12 0.0 0.0 0.00 0.05 0.05 61 1008.4
20260508001505 10 12 0.0 0.0 0.00 0.05 0.05 59 1008.3
20260508000003 11 12 0.0 0.0 0.00 0.05 0.05 57 1008.2
20260507234502 11 12 0.0 0.0 0.00 0.05 0.05 52 1008.2
20260507233002 11 12 0.0 0.0 0.00 0.05 0.05 56 1008.0
20260507231501 12 12 0.0 0.0 0.00 0.05 0.05 48 1007.7
20260507230002 12 12 0.0 3.2 0.00 0.05 0.05 46 1007.9
20260507224601 12 12 0.0 4.8 0.00 0.08 0.05 44 1007.8
20260507223116 12 289 1.6 3.2 0.00 0.08 0.05 44 1007.8
20260507221559 12 296 0.0 4.8 0.00 0.08 0.05 43 1007.7
20260507220059 12 306 1.6 6.4 0.00 0.08 0.05 42 1007.8
20260507214603 12 260 1.6 6.4 0.00 0.08 0.05 43 1007.9
20260507213058 12 289 1.6 4.8 0.00 0.08 0.05 43 1007.9
20260507211603 13 250 0.0 4.8 0.00 0.08 0.05 42 1007.9
20260507210113 13 250 1.6 6.4 0.00 0.08 0.05 41 1007.7
20260507204555 13 265 1.6 4.8 0.00 0.08 0.05 41 1007.7